User: anonymous   Login
Location: Fort Wayne
(41.1310°N, 85.1290°W)
Time: 09:48:33
(UTC-05:00)
Language:

CZ-2C R/B - Orbit

View from above orbital plane
View from above orbital plane
View from above satellite
View from above satellite

Ground track
Ground track

The orbit data is extracted from the following two-line orbital elements,

1 36089U 09061B   17054.56250124  .00000106  00000-0  37539-4 0  9992
2 36089  98.0513  61.4112 0082848  36.4458  71.4661 14.49641536385249
Epoch (UTC): 23 February 2017 13:30:00
Eccentricity: 0.0082848
inclination: 98.0513°
perigee height: 668 km
apogee height: 785 km
right ascension of ascending node: 61.4112°
argument of perigee: 36.4458°
revolutions per day: 14.49641536
mean anomaly at epoch: 71.4661°
orbit number at epoch: 38524

The dashed part of the orbit path shows where the satellite is in the earth's shadow,  

DLR